This demonstration page uses our WeatherBlox Daily Observations layout. Learn more.

Left ArrowRight Arrow

41.55636, -103.73856

Hourly Observations for February 9, 2016

Temp ( °F °C ) Dew Point ( °F °C ) Humidity (%) Winds ( mph kmh ) Pressure ( in mb ) Visibility ( mi km ) Precip ( " mm )
12:53 am 00:53 Mostly Cloudy 31 -0.6 25 -3.9 79 79 NW 12 19 30.29 1026 10 16.0934 N/A
1:53 am 01:53 Mostly Cloudy 33 0.6 26 -3.3 75 75 WNW 10 17 30.28 1025 10 16.0934 N/A
2:53 am 02:53 Clear 33 0.6 25 -3.9 72 72 NW 14 22 30.28 1025 10 16.0934 N/A
3:53 am 03:53 Clear 31 -0.6 24 -4.4 76 76 WNW 14 22 30.29 1026 10 16.0934 N/A
4:53 am 04:53 Clear 30 -1.1 23 -5 75 75 NW 10 17 30.31 1026 10 16.0934 N/A
5:53 am 05:53 Clear 30 -1.1 23 -5 75 75 WNW 8 13 30.33 1027 10 16.0934 N/A
6:53 am 06:53 Clear 28 -2.2 22 -5.6 78 78 NW 10 17 30.33 1027 10 16.0934 N/A
7:53 am 07:53 Sunny 32 undefined 24 -4.4 73 73 NW 10 17 30.32 1027 10 16.0934 N/A
8:53 am 08:53 Sunny 38 3.3 26 -3.3 62 62 WNW 12 19 30.31 1026 10 16.0934 N/A
9:53 am 09:53 Mostly Cloudy 43 6.1 27 -2.8 53 53 WNW 14 22 30.32 1027 10 16.0934 N/A
10:53 am 10:53 Sunny 46 7.8 29 -1.7 51 51 NW 15 24 30.31 1026 10 16.0934 N/A
11:53 am 11:53 Sunny 48 8.9 31 -0.6 52 52 WNW 14 22 30.28 1026 10 16.0934 N/A
12:53 pm 12:53 Sunny 50 10 32 undefined 50 50 NW 18 30 30.25 1025 10 16.0934 N/A
1:53 pm 13:53 Mostly Cloudy 50 10 32 undefined 50 50 WNW 14 22 30.23 1024 10 16.0934 N/A
2:53 pm 14:53 Sunny 52 11.1 34 1.1 50 50 WNW 12 19 30.22 1023 10 16.0934 N/A
3:53 pm 15:53 Sunny 51 10.6 33 0.6 50 50 NW 10 17 30.22 1023 10 16.0934 N/A
4:53 pm 16:53 Sunny 47 8.3 31 -0.6 54 54 WNW 13 20 30.22 1023 10 16.0934 N/A
5:53 pm 17:53 Clear 41 5 30 -1.1 65 65 W 10 17 30.24 1024 10 16.0934 N/A
6:53 pm 18:53 Clear 41 5 29 -1.7 62 62 WNW 16 26 30.24 1024 10 16.0934 N/A
7:53 pm 19:53 Clear 38 3.3 28 -2.2 68 68 WNW 10 17 30.24 1024 10 16.0934 N/A
8:53 pm 20:53 Clear 37 2.8 28 -2.2 70 70 WNW 9 15 30.21 1023 10 16.0934 N/A
9:53 pm 21:53 Clear 31 -0.6 26 -3.3 82 82 NNW 6 9 30.21 1023 10 16.0934 N/A
10:53 pm 22:53 Clear 33 0.6 26 -3.3 75 75 N N/A 30.18 1022 10 16.0934 N/A
11:53 pm 23:53 Clear 31 -0.6 25 -3.9 79 79 N 3 6 30.16 1021 10 16.0934 N/A

Powered by AerisWeather